Year,Month,Day,Hour,Minute,Value (Times are PST for temperature in C)
2012,06,06,00,00,10.90
2012,06,06,00,01,10.90
2012,06,06,00,02,10.90
2012,06,06,00,03,10.90
2012,06,06,00,04,11.00
2012,06,06,00,05,11.00
2012,06,06,00,06,10.90
2012,06,06,00,07,10.90
2012,06,06,00,08,10.90
2012,06,06,00,09,10.90
2012,06,06,00,10,10.90
2012,06,06,00,11,10.90
2012,06,06,00,12,10.90
2012,06,06,00,13,10.90
2012,06,06,00,14,10.90
2012,06,06,00,15,10.90
2012,06,06,00,16,10.90
2012,06,06,00,17,10.90
2012,06,06,00,18,10.90
2012,06,06,00,19,10.90
2012,06,06,00,20,10.90
2012,06,06,00,21,10.80
2012,06,06,00,22,10.80
2012,06,06,00,23,10.80
2012,06,06,00,24,10.80
2012,06,06,00,25,10.80
2012,06,06,00,26,10.80
2012,06,06,00,27,10.80
2012,06,06,00,28,10.80
2012,06,06,00,29,10.80
2012,06,06,00,30,10.80
2012,06,06,00,31,10.80
2012,06,06,00,32,10.70
2012,06,06,00,33,10.70
2012,06,06,00,34,10.70
2012,06,06,00,35,10.70
2012,06,06,00,36,10.70
2012,06,06,00,37,10.70
2012,06,06,00,38,10.70
2012,06,06,00,39,10.60
2012,06,06,00,40,10.60
2012,06,06,00,41,10.60
2012,06,06,00,42,10.60
2012,06,06,00,43,10.60
2012,06,06,00,44,10.60
2012,06,06,00,45,10.60
2012,06,06,00,46,10.60
2012,06,06,00,47,10.60
2012,06,06,00,48,10.60
2012,06,06,00,49,10.60
2012,06,06,00,50,10.50
2012,06,06,00,51,10.50
2012,06,06,00,52,10.50
2012,06,06,00,53,10.50
2012,06,06,00,54,10.50
2012,06,06,00,55,10.40
2012,06,06,00,56,10.40
2012,06,06,00,57,10.40
2012,06,06,00,58,10.40
2012,06,06,00,59,10.40
2012,06,06,01,00,10.40
2012,06,06,01,01,10.30
2012,06,06,01,02,10.30
2012,06,06,01,03,10.30
2012,06,06,01,04,10.30
2012,06,06,01,05,10.30
2012,06,06,01,06,10.30
2012,06,06,01,07,10.30
2012,06,06,01,08,10.30
2012,06,06,01,09,10.30
2012,06,06,01,10,10.30
2012,06,06,01,11,10.30
2012,06,06,01,12,10.30
2012,06,06,01,13,10.30
2012,06,06,01,14,10.20
2012,06,06,01,15,10.20
2012,06,06,01,16,10.20
2012,06,06,01,17,10.20
2012,06,06,01,18,10.10
2012,06,06,01,19,10.10
2012,06,06,01,20,10.10
2012,06,06,01,21,10.00
2012,06,06,01,22,10.00
2012,06,06,01,23,9.90
2012,06,06,01,24,9.90
2012,06,06,01,25,9.90
2012,06,06,01,26,9.80
2012,06,06,01,27,9.80
2012,06,06,01,28,9.80
2012,06,06,01,29,9.80
2012,06,06,01,30,9.70
2012,06,06,01,31,9.70
2012,06,06,01,32,9.70
2012,06,06,01,33,9.70
2012,06,06,01,34,9.60
2012,06,06,01,35,9.60
2012,06,06,01,36,9.60
2012,06,06,01,37,9.50
2012,06,06,01,38,9.40
2012,06,06,01,39,9.40
2012,06,06,01,40,9.40
2012,06,06,01,41,9.40
2012,06,06,01,42,9.40
2012,06,06,01,43,9.40
2012,06,06,01,44,9.40
2012,06,06,01,45,9.40
2012,06,06,01,46,9.40
2012,06,06,01,47,9.30
2012,06,06,01,48,9.30
2012,06,06,01,49,9.30
2012,06,06,01,50,9.30
2012,06,06,01,51,9.30
2012,06,06,01,52,9.30
2012,06,06,01,53,9.20
2012,06,06,01,54,9.20
2012,06,06,01,55,9.20
2012,06,06,01,56,9.10
2012,06,06,01,57,9.10
2012,06,06,01,58,9.00
2012,06,06,01,59,9.00
2012,06,06,02,00,8.90
2012,06,06,02,01,8.90
2012,06,06,02,02,8.90
2012,06,06,02,03,8.80
2012,06,06,02,04,8.80
2012,06,06,02,05,8.80
2012,06,06,02,06,8.80
2012,06,06,02,07,8.70
2012,06,06,02,08,8.70
2012,06,06,02,09,8.70
2012,06,06,02,10,8.70
2012,06,06,02,11,8.70
2012,06,06,02,12,8.70
2012,06,06,02,13,8.70
2012,06,06,02,14,8.60
2012,06,06,02,15,8.60
2012,06,06,02,16,8.60
2012,06,06,02,17,8.60
2012,06,06,02,18,8.60
2012,06,06,02,19,8.60
2012,06,06,02,20,8.60
2012,06,06,02,21,8.60
2012,06,06,02,22,8.60
2012,06,06,02,23,8.60
2012,06,06,02,24,8.60
2012,06,06,02,25,8.50
2012,06,06,02,26,8.50
2012,06,06,02,27,8.40
2012,06,06,02,28,8.40
2012,06,06,02,29,8.30
2012,06,06,02,30,8.30
2012,06,06,02,31,8.20
2012,06,06,02,32,8.20
2012,06,06,02,33,8.10
2012,06,06,02,34,8.10
2012,06,06,02,35,8.10
2012,06,06,02,36,8.00
2012,06,06,02,37,8.00
2012,06,06,02,38,7.90
2012,06,06,02,39,7.90
2012,06,06,02,40,7.90
2012,06,06,02,41,7.90
2012,06,06,02,42,7.90
2012,06,06,02,43,7.90
2012,06,06,02,44,7.80
2012,06,06,02,45,7.80
2012,06,06,02,46,7.80
2012,06,06,02,47,7.80
2012,06,06,02,48,7.70
2012,06,06,02,49,7.70
2012,06,06,02,50,7.70
2012,06,06,02,51,7.70
2012,06,06,02,52,7.60
2012,06,06,02,53,7.60
2012,06,06,02,54,7.60
2012,06,06,02,55,7.60
2012,06,06,02,56,7.60
2012,06,06,02,57,7.70
2012,06,06,02,58,7.70
2012,06,06,02,59,7.70
2012,06,06,03,00,7.70
2012,06,06,03,01,7.70
2012,06,06,03,02,7.70
2012,06,06,03,03,7.70
2012,06,06,03,04,7.70
2012,06,06,03,05,7.70
2012,06,06,03,06,7.70
2012,06,06,03,07,7.70
2012,06,06,03,08,7.70
2012,06,06,03,09,7.70
2012,06,06,03,10,7.70
2012,06,06,03,11,7.70
2012,06,06,03,12,7.70
2012,06,06,03,13,7.70
2012,06,06,03,14,7.70
2012,06,06,03,15,7.80
2012,06,06,03,16,7.80
2012,06,06,03,17,7.80
2012,06,06,03,18,7.80
2012,06,06,03,19,7.80
2012,06,06,03,20,7.80
2012,06,06,03,21,7.80
2012,06,06,03,22,7.80
2012,06,06,03,23,7.80
2012,06,06,03,24,7.80
2012,06,06,03,25,7.90
2012,06,06,03,26,7.90
2012,06,06,03,27,7.90
2012,06,06,03,28,7.90
2012,06,06,03,29,7.90
2012,06,06,03,30,7.90
2012,06,06,03,31,7.90
2012,06,06,03,32,7.80
2012,06,06,03,33,7.80
2012,06,06,03,34,7.80
2012,06,06,03,35,7.80
2012,06,06,03,36,7.70
2012,06,06,03,37,7.70
2012,06,06,03,38,7.60
2012,06,06,03,39,7.60
2012,06,06,03,40,7.50
2012,06,06,03,41,7.40
2012,06,06,03,42,7.40
2012,06,06,03,43,7.30
2012,06,06,03,44,7.30
2012,06,06,03,45,7.30
2012,06,06,03,46,7.20
2012,06,06,03,47,7.20
2012,06,06,03,48,7.20
2012,06,06,03,49,7.10
2012,06,06,03,50,7.10
2012,06,06,03,51,7.10
2012,06,06,03,52,7.00
2012,06,06,03,53,7.00
2012,06,06,03,54,6.90
2012,06,06,03,55,6.90
2012,06,06,03,56,6.90
2012,06,06,03,57,6.90
2012,06,06,03,58,6.80
2012,06,06,03,59,6.80
2012,06,06,04,00,6.80
2012,06,06,04,01,6.80
2012,06,06,04,02,6.80
2012,06,06,04,03,6.70
2012,06,06,04,04,6.70
2012,06,06,04,05,6.70
2012,06,06,04,06,6.70
2012,06,06,04,07,6.70
2012,06,06,04,08,6.70
2012,06,06,04,09,6.70
2012,06,06,04,10,6.70
2012,06,06,04,11,6.70
2012,06,06,04,12,6.60
2012,06,06,04,13,6.60
2012,06,06,04,14,6.60
2012,06,06,04,15,6.60
2012,06,06,04,16,6.60
2012,06,06,04,17,6.60
2012,06,06,04,18,6.60
2012,06,06,04,19,6.60
2012,06,06,04,20,6.60
2012,06,06,04,21,6.60
2012,06,06,04,22,6.60
2012,06,06,04,23,6.60
2012,06,06,04,24,6.60
2012,06,06,04,25,6.60
2012,06,06,04,26,6.60
2012,06,06,04,27,6.50
2012,06,06,04,28,6.50
2012,06,06,04,29,6.50
2012,06,06,04,30,6.50
2012,06,06,04,31,6.50
2012,06,06,04,32,6.50
2012,06,06,04,33,6.50
2012,06,06,04,34,6.50
2012,06,06,04,35,6.60
2012,06,06,04,36,6.60
2012,06,06,04,37,6.60
2012,06,06,04,38,6.70
2012,06,06,04,39,6.70
2012,06,06,04,40,6.70
2012,06,06,04,41,6.70
2012,06,06,04,42,6.80
2012,06,06,04,43,6.80
2012,06,06,04,44,6.90
2012,06,06,04,45,6.90
2012,06,06,04,46,6.90
2012,06,06,04,47,6.90
2012,06,06,04,48,6.90
2012,06,06,04,49,6.90
2012,06,06,04,50,6.90
2012,06,06,04,51,7.00
2012,06,06,04,52,7.10
2012,06,06,04,53,7.10
2012,06,06,04,54,7.10
2012,06,06,04,55,7.10
2012,06,06,04,56,7.10
2012,06,06,04,57,7.00
2012,06,06,04,58,7.00
2012,06,06,04,59,6.90
2012,06,06,05,00,6.80
2012,06,06,05,01,6.80
2012,06,06,05,02,6.70
2012,06,06,05,03,6.70
2012,06,06,05,04,6.60
2012,06,06,05,05,6.60
2012,06,06,05,06,6.60
2012,06,06,05,07,6.50
2012,06,06,05,08,6.50
2012,06,06,05,09,6.40
2012,06,06,05,10,6.40
2012,06,06,05,11,6.40
2012,06,06,05,12,6.30
2012,06,06,05,13,6.30
2012,06,06,05,14,6.20
2012,06,06,05,15,6.20
2012,06,06,05,16,6.20
2012,06,06,05,17,6.10
2012,06,06,05,18,6.10
2012,06,06,05,19,6.10
2012,06,06,05,20,6.00
2012,06,06,05,21,6.00
2012,06,06,05,22,5.90
2012,06,06,05,23,5.90
2012,06,06,05,24,5.90
2012,06,06,05,25,5.90
2012,06,06,05,26,5.90
2012,06,06,05,27,5.80
2012,06,06,05,28,5.80
2012,06,06,05,29,5.80
2012,06,06,05,30,5.80
2012,06,06,05,31,5.80
2012,06,06,05,32,5.70
2012,06,06,05,33,5.70
2012,06,06,05,34,5.70
2012,06,06,05,35,5.70
2012,06,06,05,36,5.70
2012,06,06,05,37,5.70
2012,06,06,05,38,5.70
2012,06,06,05,39,5.70
2012,06,06,05,40,5.70
2012,06,06,05,41,5.80
2012,06,06,05,42,5.80
2012,06,06,05,43,5.80
2012,06,06,05,44,5.80
2012,06,06,05,45,5.80
2012,06,06,05,46,5.90
2012,06,06,05,47,5.90
2012,06,06,05,48,5.90
2012,06,06,05,49,5.90
2012,06,06,05,50,5.90
2012,06,06,05,51,5.90
2012,06,06,05,52,5.90
2012,06,06,05,53,5.90
2012,06,06,05,54,5.90
2012,06,06,05,55,5.90
2012,06,06,05,56,5.80
2012,06,06,05,57,5.80
2012,06,06,05,58,5.80
2012,06,06,05,59,5.80
2012,06,06,06,00,5.80
2012,06,06,06,01,5.80
2012,06,06,06,02,5.80
2012,06,06,06,03,5.70
2012,06,06,06,04,5.70
2012,06,06,06,05,5.70
2012,06,06,06,06,5.80
2012,06,06,06,07,5.80
2012,06,06,06,08,5.80
2012,06,06,06,09,5.80
2012,06,06,06,10,5.90
2012,06,06,06,11,5.90
2012,06,06,06,12,5.90
2012,06,06,06,13,5.90
2012,06,06,06,14,5.90
2012,06,06,06,15,5.90
2012,06,06,06,16,6.00
2012,06,06,06,17,6.00
2012,06,06,06,18,6.00
2012,06,06,06,19,6.10
2012,06,06,06,20,6.10
2012,06,06,06,21,6.10
2012,06,06,06,22,6.20
2012,06,06,06,23,6.20
2012,06,06,06,24,6.30
2012,06,06,06,25,6.40
2012,06,06,06,26,6.40
2012,06,06,06,27,6.50
2012,06,06,06,28,6.60
2012,06,06,06,29,6.70
2012,06,06,06,30,6.70
2012,06,06,06,31,6.80
2012,06,06,06,32,6.80
2012,06,06,06,33,6.90
2012,06,06,06,34,7.00
2012,06,06,06,35,7.10
2012,06,06,06,36,7.10
2012,06,06,06,37,7.20
2012,06,06,06,38,7.30
2012,06,06,06,39,7.40
2012,06,06,06,40,7.40
2012,06,06,06,41,7.50
2012,06,06,06,42,7.60
2012,06,06,06,43,7.60
2012,06,06,06,44,7.70
2012,06,06,06,45,7.80
2012,06,06,06,46,7.80
2012,06,06,06,47,7.90
2012,06,06,06,48,8.00
2012,06,06,06,49,8.10
2012,06,06,06,50,8.20
2012,06,06,06,51,8.30
2012,06,06,06,52,8.30
2012,06,06,06,53,8.40
2012,06,06,06,54,8.50
2012,06,06,06,55,8.70
2012,06,06,06,56,8.80
2012,06,06,06,57,8.80
2012,06,06,06,58,8.90
2012,06,06,06,59,9.00
2012,06,06,07,00,9.10
2012,06,06,07,01,9.20
2012,06,06,07,02,9.20
2012,06,06,07,03,9.20
2012,06,06,07,04,9.30
2012,06,06,07,05,9.30
2012,06,06,07,06,9.30
2012,06,06,07,07,9.30
2012,06,06,07,08,9.30
2012,06,06,07,09,9.30
2012,06,06,07,10,9.30
2012,06,06,07,11,9.30
2012,06,06,07,12,9.30
2012,06,06,07,13,9.30
2012,06,06,07,14,9.30
2012,06,06,07,15,9.30
2012,06,06,07,16,9.30
2012,06,06,07,17,9.20
2012,06,06,07,18,9.30
2012,06,06,07,19,9.30
2012,06,06,07,20,9.30
2012,06,06,07,21,9.30
2012,06,06,07,22,9.30
2012,06,06,07,23,9.30
2012,06,06,07,24,9.30
2012,06,06,07,25,9.40
2012,06,06,07,26,9.40
2012,06,06,07,27,9.50
2012,06,06,07,28,9.60
2012,06,06,07,29,9.60
2012,06,06,07,30,9.70
2012,06,06,07,31,9.80
2012,06,06,07,32,9.90
2012,06,06,07,33,10.00
2012,06,06,07,34,10.10
2012,06,06,07,35,10.20
2012,06,06,07,36,10.30
2012,06,06,07,37,10.40
2012,06,06,07,38,10.50
2012,06,06,07,39,10.70
2012,06,06,07,40,10.80
2012,06,06,07,41,11.00
2012,06,06,07,42,11.10
2012,06,06,07,43,11.20
2012,06,06,07,44,11.30
2012,06,06,07,45,11.50
2012,06,06,07,46,11.60
2012,06,06,07,47,11.70
2012,06,06,07,48,11.80
2012,06,06,07,49,11.90
2012,06,06,07,50,11.90
2012,06,06,07,51,12.00
2012,06,06,07,52,12.00
2012,06,06,07,53,12.10
2012,06,06,07,54,12.10
2012,06,06,07,55,12.20
2012,06,06,07,56,12.20
2012,06,06,07,57,12.20
2012,06,06,07,58,12.20
2012,06,06,07,59,12.20
2012,06,06,08,00,12.20
2012,06,06,08,01,12.20
2012,06,06,08,02,12.20
2012,06,06,08,03,12.20
2012,06,06,08,04,12.20
2012,06,06,08,05,12.20
2012,06,06,08,06,12.30
2012,06,06,08,07,12.30
2012,06,06,08,08,12.40
2012,06,06,08,09,12.50
2012,06,06,08,10,12.60
2012,06,06,08,11,12.70
2012,06,06,08,12,12.80
2012,06,06,08,13,12.80
2012,06,06,08,14,12.80
2012,06,06,08,15,12.90
2012,06,06,08,16,13.00
2012,06,06,08,17,13.00
2012,06,06,08,18,13.00
2012,06,06,08,19,13.00
2012,06,06,08,20,13.10
2012,06,06,08,21,13.10
2012,06,06,08,22,13.10
2012,06,06,08,23,13.20
2012,06,06,08,24,13.30
2012,06,06,08,25,13.30
2012,06,06,08,26,13.40
2012,06,06,08,27,13.40
2012,06,06,08,28,13.40
2012,06,06,08,29,13.40
2012,06,06,08,30,13.40
2012,06,06,08,31,13.40
2012,06,06,08,32,13.30
2012,06,06,08,33,13.30
2012,06,06,08,34,13.30
2012,06,06,08,35,13.30
2012,06,06,08,36,13.30
2012,06,06,08,37,13.30
2012,06,06,08,38,13.30
2012,06,06,08,39,13.20
2012,06,06,08,40,13.20
2012,06,06,08,41,13.20
2012,06,06,08,42,13.20
2012,06,06,08,43,13.20
2012,06,06,08,44,13.30
2012,06,06,08,45,13.30
2012,06,06,08,46,13.30
2012,06,06,08,47,13.40
2012,06,06,08,48,13.40
2012,06,06,08,49,13.30
2012,06,06,08,50,13.30
2012,06,06,08,51,13.30
2012,06,06,08,52,13.30
2012,06,06,08,53,13.30
2012,06,06,08,54,13.30
2012,06,06,08,55,13.40
2012,06,06,08,56,13.40
2012,06,06,08,57,13.50
2012,06,06,08,58,13.60
2012,06,06,08,59,13.60
2012,06,06,09,00,13.70
2012,06,06,09,01,13.60
2012,06,06,09,02,13.60
2012,06,06,09,03,13.60
2012,06,06,09,04,13.60
2012,06,06,09,05,13.60
2012,06,06,09,06,13.60
2012,06,06,09,07,13.60
2012,06,06,09,08,13.70
2012,06,06,09,09,13.70
2012,06,06,09,10,13.70
2012,06,06,09,11,13.70
2012,06,06,09,12,13.70
2012,06,06,09,13,13.70
2012,06,06,09,14,13.80
2012,06,06,09,15,13.80
2012,06,06,09,16,13.80
2012,06,06,09,17,13.80
2012,06,06,09,18,13.70
2012,06,06,09,19,13.70
2012,06,06,09,20,13.80
2012,06,06,09,21,13.80
2012,06,06,09,22,13.70
2012,06,06,09,23,13.70
2012,06,06,09,24,13.70
2012,06,06,09,25,13.70
2012,06,06,09,26,13.70
2012,06,06,09,27,13.70
2012,06,06,09,28,13.80
2012,06,06,09,29,13.80
2012,06,06,09,30,13.80
2012,06,06,09,31,13.90
2012,06,06,09,32,13.90
2012,06,06,09,33,13.90
2012,06,06,09,34,13.90
2012,06,06,09,35,13.90
2012,06,06,09,36,13.80
2012,06,06,09,37,13.70
2012,06,06,09,38,13.70
2012,06,06,09,39,13.60
2012,06,06,09,40,13.70
2012,06,06,09,41,13.70
2012,06,06,09,42,13.70
2012,06,06,09,43,13.70
2012,06,06,09,44,13.70
2012,06,06,09,45,13.70
2012,06,06,09,46,13.70
2012,06,06,09,47,13.80
2012,06,06,09,48,13.90
2012,06,06,09,49,13.90
2012,06,06,09,50,14.00
2012,06,06,09,51,14.10
2012,06,06,09,52,14.20
2012,06,06,09,53,14.20
2012,06,06,09,54,14.20
2012,06,06,09,55,14.10
2012,06,06,09,56,14.10
2012,06,06,09,57,14.20
2012,06,06,09,58,14.20
2012,06,06,09,59,14.20
2012,06,06,10,00,14.20
2012,06,06,10,01,14.10
2012,06,06,10,02,14.20
2012,06,06,10,03,14.10
2012,06,06,10,04,14.00
2012,06,06,10,05,13.90
2012,06,06,10,06,14.00
2012,06,06,10,07,14.00
2012,06,06,10,08,14.00
2012,06,06,10,09,14.10
2012,06,06,10,10,14.10
2012,06,06,10,11,14.20
2012,06,06,10,12,14.20
2012,06,06,10,13,14.30
2012,06,06,10,14,14.30
2012,06,06,10,15,14.30
2012,06,06,10,16,14.30
2012,06,06,10,17,14.30
2012,06,06,10,18,14.20
2012,06,06,10,19,14.20
2012,06,06,10,20,14.20
2012,06,06,10,21,14.20
2012,06,06,10,22,14.20
2012,06,06,10,23,14.20
2012,06,06,10,24,14.20
2012,06,06,10,25,14.20
2012,06,06,10,26,14.20
2012,06,06,10,27,14.20
2012,06,06,10,28,14.30
2012,06,06,10,29,14.30
2012,06,06,10,30,14.30
2012,06,06,10,31,14.40
2012,06,06,10,32,14.50
2012,06,06,10,33,14.50
2012,06,06,10,34,14.50
2012,06,06,10,35,14.60
2012,06,06,10,36,14.60
2012,06,06,10,37,14.60
2012,06,06,10,38,14.60
2012,06,06,10,39,14.70
2012,06,06,10,40,14.60
2012,06,06,10,41,14.50
2012,06,06,10,42,14.50
2012,06,06,10,43,14.50
2012,06,06,10,44,14.50
2012,06,06,10,45,14.40
2012,06,06,10,46,14.40
2012,06,06,10,47,14.50
2012,06,06,10,48,14.60
2012,06,06,10,49,14.80
2012,06,06,10,50,14.80
2012,06,06,10,51,14.70
2012,06,06,10,52,14.70
2012,06,06,10,53,14.70
2012,06,06,10,54,14.70
2012,06,06,10,55,14.70
2012,06,06,10,56,14.60
2012,06,06,10,57,14.60
2012,06,06,10,58,14.50
2012,06,06,10,59,14.40
2012,06,06,11,00,14.50
2012,06,06,11,01,14.60
2012,06,06,11,02,14.80
2012,06,06,11,03,14.90
2012,06,06,11,04,15.00
2012,06,06,11,05,15.00
2012,06,06,11,06,14.90
2012,06,06,11,07,14.80
2012,06,06,11,08,14.80
2012,06,06,11,09,14.80
2012,06,06,11,10,14.70
2012,06,06,11,11,14.60
2012,06,06,11,12,14.60
2012,06,06,11,13,14.60
2012,06,06,11,14,14.60
2012,06,06,11,15,14.70
2012,06,06,11,16,14.80
2012,06,06,11,17,15.00
2012,06,06,11,18,15.00
2012,06,06,11,19,15.00
2012,06,06,11,20,15.00
2012,06,06,11,21,15.00
2012,06,06,11,22,15.00
2012,06,06,11,23,14.90
2012,06,06,11,24,14.80
2012,06,06,11,25,14.80
2012,06,06,11,26,14.80
2012,06,06,11,27,15.00
2012,06,06,11,28,15.00
2012,06,06,11,29,15.00
2012,06,06,11,30,15.00
2012,06,06,11,31,15.00
2012,06,06,11,32,15.00
2012,06,06,11,33,14.90
2012,06,06,11,34,14.90
2012,06,06,11,35,15.00
2012,06,06,11,36,15.00
2012,06,06,11,37,14.90
2012,06,06,11,38,14.80
2012,06,06,11,39,14.90
2012,06,06,11,40,15.00
2012,06,06,11,41,15.00
2012,06,06,11,42,15.00
2012,06,06,11,43,15.00
2012,06,06,11,44,15.00
2012,06,06,11,45,15.00
2012,06,06,11,46,15.00
2012,06,06,11,47,15.00
2012,06,06,11,48,15.00
2012,06,06,11,49,15.00
2012,06,06,11,50,15.00
2012,06,06,11,51,15.00
2012,06,06,11,52,15.00
2012,06,06,11,53,15.00
2012,06,06,11,54,15.00
2012,06,06,11,55,15.00
2012,06,06,11,56,14.80
2012,06,06,11,57,14.80
2012,06,06,11,58,14.80
2012,06,06,11,59,14.70
2012,06,06,12,00,14.70
2012,06,06,12,01,14.70
2012,06,06,12,02,14.70
2012,06,06,12,03,15.00
2012,06,06,12,04,15.00
2012,06,06,12,05,15.00
2012,06,06,12,06,15.00
2012,06,06,12,07,15.00
2012,06,06,12,08,14.80
2012,06,06,12,09,14.60
2012,06,06,12,10,14.50
2012,06,06,12,11,14.40
2012,06,06,12,12,14.50
2012,06,06,12,13,14.60
2012,06,06,12,14,14.60
2012,06,06,12,15,14.60
2012,06,06,12,16,14.60
2012,06,06,12,17,14.70
2012,06,06,12,18,14.60
2012,06,06,12,19,14.50
2012,06,06,12,20,14.50
2012,06,06,12,21,14.50
2012,06,06,12,22,14.50
2012,06,06,12,23,14.40
2012,06,06,12,24,14.40
2012,06,06,12,25,14.30
2012,06,06,12,26,14.30
2012,06,06,12,27,14.30
2012,06,06,12,28,14.30
2012,06,06,12,29,14.40
2012,06,06,12,30,14.50
2012,06,06,12,31,14.60
2012,06,06,12,32,14.70
2012,06,06,12,33,14.90
2012,06,06,12,34,14.90
2012,06,06,12,35,14.80
2012,06,06,12,36,14.70
2012,06,06,12,37,14.80
2012,06,06,12,38,14.80
2012,06,06,12,39,14.90
2012,06,06,12,40,15.00
2012,06,06,12,41,15.00
2012,06,06,12,42,15.00
2012,06,06,12,43,15.10
2012,06,06,12,44,15.00
2012,06,06,12,45,15.00
2012,06,06,12,46,15.00
2012,06,06,12,47,15.00
2012,06,06,12,48,15.20
2012,06,06,12,49,15.20
2012,06,06,12,50,15.10
2012,06,06,12,51,15.00
2012,06,06,12,52,15.00
2012,06,06,12,53,15.00
2012,06,06,12,54,14.80
2012,06,06,12,55,14.70
2012,06,06,12,56,14.80
2012,06,06,12,57,14.80
2012,06,06,12,58,14.70
2012,06,06,12,59,14.50
2012,06,06,13,00,14.30
2012,06,06,13,01,14.30
2012,06,06,13,02,14.20
2012,06,06,13,03,14.20
2012,06,06,13,04,14.10
2012,06,06,13,05,14.10
2012,06,06,13,06,14.10
2012,06,06,13,07,14.20
2012,06,06,13,08,14.10
2012,06,06,13,09,14.10
2012,06,06,13,10,14.00
2012,06,06,13,11,14.00
2012,06,06,13,12,14.10
2012,06,06,13,13,14.20
2012,06,06,13,14,14.20
2012,06,06,13,15,14.20
2012,06,06,13,16,14.30
2012,06,06,13,17,14.40
2012,06,06,13,18,14.40
2012,06,06,13,19,14.50
2012,06,06,13,20,14.50
2012,06,06,13,21,14.50
2012,06,06,13,22,14.50
2012,06,06,13,23,14.60
2012,06,06,13,24,14.50
2012,06,06,13,25,14.40
2012,06,06,13,26,14.20
2012,06,06,13,27,14.10
2012,06,06,13,28,13.90
2012,06,06,13,29,13.90
2012,06,06,13,30,13.80
2012,06,06,13,31,13.80
2012,06,06,13,32,13.80
2012,06,06,13,33,13.80
2012,06,06,13,34,13.80
2012,06,06,13,35,13.80
2012,06,06,13,36,13.80
2012,06,06,13,37,13.80
2012,06,06,13,38,13.80
2012,06,06,13,39,13.80
2012,06,06,13,40,13.80
2012,06,06,13,41,13.80
2012,06,06,13,42,13.80
2012,06,06,13,43,13.80
2012,06,06,13,44,13.90
2012,06,06,13,45,13.90
2012,06,06,13,46,13.90
2012,06,06,13,47,13.90
2012,06,06,13,48,13.80
2012,06,06,13,49,13.80
2012,06,06,13,50,13.70
2012,06,06,13,51,13.80
2012,06,06,13,52,13.90
2012,06,06,13,53,13.90
2012,06,06,13,54,13.90
2012,06,06,13,55,13.90
2012,06,06,13,56,14.00
2012,06,06,13,57,13.90
2012,06,06,13,58,13.80
2012,06,06,13,59,13.80
2012,06,06,14,00,13.80
2012,06,06,14,01,13.80
2012,06,06,14,02,13.80
2012,06,06,14,03,13.80
2012,06,06,14,04,13.80
2012,06,06,14,05,13.90
2012,06,06,14,06,13.90
2012,06,06,14,07,13.80
2012,06,06,14,08,13.90
2012,06,06,14,09,13.90
2012,06,06,14,10,13.90
2012,06,06,14,11,13.90
2012,06,06,14,12,13.90
2012,06,06,14,13,13.90
2012,06,06,14,14,13.90
2012,06,06,14,15,13.90
2012,06,06,14,16,13.90
2012,06,06,14,17,13.80
2012,06,06,14,18,13.80
2012,06,06,14,19,13.90
2012,06,06,14,20,14.00
2012,06,06,14,21,14.10
2012,06,06,14,22,14.10
2012,06,06,14,23,14.20
2012,06,06,14,24,14.20
2012,06,06,14,25,14.20
2012,06,06,14,26,14.30
2012,06,06,14,27,14.30
2012,06,06,14,28,14.30
2012,06,06,14,29,14.30
2012,06,06,14,30,14.30
2012,06,06,14,31,14.30
2012,06,06,14,32,14.30
2012,06,06,14,33,14.20
2012,06,06,14,34,14.10
2012,06,06,14,35,14.10
2012,06,06,14,36,14.20
2012,06,06,14,37,14.30
2012,06,06,14,38,14.30
2012,06,06,14,39,14.30
2012,06,06,14,40,14.30
2012,06,06,14,41,14.30
2012,06,06,14,42,14.30
2012,06,06,14,43,14.30
2012,06,06,14,44,14.30
2012,06,06,14,45,14.20
2012,06,06,14,46,14.30
2012,06,06,14,47,14.30
2012,06,06,14,48,14.20
2012,06,06,14,49,14.10
2012,06,06,14,50,14.00
2012,06,06,14,51,14.00
2012,06,06,14,52,14.10
2012,06,06,14,53,14.10
2012,06,06,14,54,14.10
2012,06,06,14,55,14.10
2012,06,06,14,56,14.20
2012,06,06,14,57,14.20
2012,06,06,14,58,14.20
2012,06,06,14,59,14.30
2012,06,06,15,00,14.40
2012,06,06,15,01,14.50
2012,06,06,15,02,14.50
2012,06,06,15,03,14.60
2012,06,06,15,04,14.70
2012,06,06,15,05,14.70
2012,06,06,15,06,14.80
2012,06,06,15,07,14.90
2012,06,06,15,08,15.00
2012,06,06,15,09,15.00
2012,06,06,15,10,15.00
2012,06,06,15,11,15.00
2012,06,06,15,12,15.00
2012,06,06,15,13,15.00
2012,06,06,15,14,15.00
2012,06,06,15,15,15.00
2012,06,06,15,16,15.00
2012,06,06,15,17,15.00
2012,06,06,15,18,15.00
2012,06,06,15,19,15.00
2012,06,06,15,20,15.00
2012,06,06,15,21,15.00
2012,06,06,15,22,15.00
2012,06,06,15,23,14.90
2012,06,06,15,24,14.80
2012,06,06,15,25,14.80
2012,06,06,15,26,14.80
2012,06,06,15,27,14.80
2012,06,06,15,28,14.80
2012,06,06,15,29,14.80
2012,06,06,15,30,14.90
2012,06,06,15,31,14.80
2012,06,06,15,32,14.80
2012,06,06,15,33,14.70
2012,06,06,15,34,14.70
2012,06,06,15,35,14.70
2012,06,06,15,36,14.80
2012,06,06,15,37,14.80
2012,06,06,15,38,14.70
2012,06,06,15,39,14.70
2012,06,06,15,40,14.60
2012,06,06,15,41,14.50
2012,06,06,15,42,14.40
2012,06,06,15,43,14.30
2012,06,06,15,44,14.30
2012,06,06,15,45,14.30
2012,06,06,15,46,14.30
2012,06,06,15,47,14.30
2012,06,06,15,48,14.40
2012,06,06,15,49,14.60
2012,06,06,15,50,14.70
2012,06,06,15,51,14.80
2012,06,06,15,52,14.90
2012,06,06,15,53,15.00
2012,06,06,15,54,15.00
2012,06,06,15,55,15.00
2012,06,06,15,56,15.00
2012,06,06,15,57,15.00
2012,06,06,15,58,15.00
2012,06,06,15,59,15.00
2012,06,06,16,00,15.00
2012,06,06,16,01,15.00
2012,06,06,16,02,15.00
2012,06,06,16,03,14.90
2012,06,06,16,04,14.90
2012,06,06,16,05,14.80
2012,06,06,16,06,14.70
2012,06,06,16,07,14.60
2012,06,06,16,08,14.60
2012,06,06,16,09,14.60
2012,06,06,16,10,14.60
2012,06,06,16,11,14.60
2012,06,06,16,12,14.60
2012,06,06,16,13,14.60
2012,06,06,16,14,14.60
2012,06,06,16,15,14.60
2012,06,06,16,16,14.60
2012,06,06,16,17,14.60
2012,06,06,16,18,14.60
2012,06,06,16,19,14.50
2012,06,06,16,20,14.50
2012,06,06,16,21,14.40
2012,06,06,16,22,14.40
2012,06,06,16,23,14.50
2012,06,06,16,24,14.50
2012,06,06,16,25,14.60
2012,06,06,16,26,14.60
2012,06,06,16,27,14.60
2012,06,06,16,28,14.60
2012,06,06,16,29,14.50
2012,06,06,16,30,14.50
2012,06,06,16,31,14.40
2012,06,06,16,32,14.40
2012,06,06,16,33,14.50
2012,06,06,16,34,14.50
2012,06,06,16,35,14.50
2012,06,06,16,36,14.50
2012,06,06,16,37,14.50
2012,06,06,16,38,14.50
2012,06,06,16,39,14.50
2012,06,06,16,40,14.40
2012,06,06,16,41,14.40
2012,06,06,16,42,14.30
2012,06,06,16,43,14.30
2012,06,06,16,44,14.40
2012,06,06,16,45,14.40
2012,06,06,16,46,14.40
2012,06,06,16,47,14.40
2012,06,06,16,48,14.30
2012,06,06,16,49,14.30
2012,06,06,16,50,14.30
2012,06,06,16,51,14.30
2012,06,06,16,52,14.30
2012,06,06,16,53,14.30
2012,06,06,16,54,14.30
2012,06,06,16,55,14.20
2012,06,06,16,56,14.20
2012,06,06,16,57,14.20
2012,06,06,16,58,14.20
2012,06,06,16,59,14.20
2012,06,06,17,00,14.20
2012,06,06,17,01,14.10
2012,06,06,17,02,14.10
2012,06,06,17,03,14.10
2012,06,06,17,04,14.10
2012,06,06,17,05,14.10
2012,06,06,17,06,14.10
2012,06,06,17,07,14.00
2012,06,06,17,08,14.00
2012,06,06,17,09,14.00
2012,06,06,17,10,14.10
2012,06,06,17,11,14.10
2012,06,06,17,12,14.00
2012,06,06,17,13,14.00
2012,06,06,17,14,14.10
2012,06,06,17,15,14.10
2012,06,06,17,16,14.00
2012,06,06,17,17,14.00
2012,06,06,17,18,14.00
2012,06,06,17,19,13.90
2012,06,06,17,20,13.90
2012,06,06,17,21,13.90
2012,06,06,17,22,13.90
2012,06,06,17,23,13.90
2012,06,06,17,24,13.90
2012,06,06,17,25,13.90
2012,06,06,17,26,13.90
2012,06,06,17,27,13.90
2012,06,06,17,28,13.90
2012,06,06,17,29,13.90
2012,06,06,17,30,14.00
2012,06,06,17,31,14.00
2012,06,06,17,32,14.00
2012,06,06,17,33,14.00
2012,06,06,17,34,14.10
2012,06,06,17,35,14.10